Helicity
42 49 52 38 39 8 -14 -28 -28 19 2 37 -5 -11 -33 -49 -22 -18 9 40 58 62 83 100 132 161 181 207 208 227 210 179 179 106 0 213 151 135
39 49 47 47 40 16 0 -38 -41 -37 -31 -15 -10 -41 -42 -40 -7 -30 -25 -2 21 33 44 66 106 163 216 242 240 238 237 225 245 210 107 22 103 286
51 55 56 51 30 18 2 -22 -50 -54 -49 -48 -36 -38 -31 -9 16 -14 -46 -37 -45 39 43 56 78 123 183 236 277 280 264 264 289 311 275 160 139 228
55 59 49 40 35 23 -9 -16 -34 -24 -48 -33 -41 -35 -26 14 17 24 10 -36 -55 13 42 50 60 95 125 171 218 254 261 301 295 283 339 372 90 115
40 49 42 32 25 15 -1 -5 -12 -40 -41 -32 -32 -34 -23 25 65 71 22 -13 -35 17 6 50 63 71 104 142 138 175 169 190 239 242 240 371 376 284
60 41 46 32 15 17 5 -2 5 -6 -9 -18 -22 -14 -1 45 0 40 83 43 -14 2 5 -6 25 59 76 99 110 95 197 126 87 207 202 291 355 359
42 41 35 36 29 18 1 -8 1 8 4 -4 -9 -9 6 52 36 36 8 32 -14 -9 15 -31 0 -8 8 58 100 145 15 174 270 200 223 197 292 362
39 24 18 31 17 -4 13 34 19 -9 3 -3 -16 -7 4 15 28 23 13 39 -14 19 18 -57 -13 1 -31 -14 96 144 208 168 219 241 288 237 186 428
53 24 -3 -12 21 47 -20 39 39 42 6 -6 -1 -9 -6 -6 12 18 42 26 -9 -12 -36 -39 20 24 -43 -36 86 109 155 177 279 281 292 263 322 354
65 36 37 17 32 53 33 37 33 16 -6 -9 -17 -25 -20 -11 -9 -2 8 17 7 -27 -16 -22 52 60 -34 -81 62 112 162 207 261 321 289 327 263 372
81 45 36 40 57 54 42 48 35 38 31 35 53 65 70 75 69 30 75 74 42 7 37 -1 35 117 -23 -71 -40 108 121 189 237 301 352 303 277 341
51 73 81 53 57 64 50 51 56 76 73 74 65 68 72 64 85 39 35 40 66 21 87 53 54 64 -8 -30 -25 13 38 168 207 258 336 309 328 239
87 83 53 61 44 59 67 51 51 59 70 86 87 72 71 80 70 80 58 41 32 -16 16 21 20 51 -4 21 -10 18 31 40 137 203 290 275 319 267
117 98 72 45 32 49 52 66 83 83 92 95 98 92 79 97 74 84 80 41 -5 -29 -17 23 25 45 35 -4 16 50 86 3 86 177 211 245 219 238
86 76 44 18 16 30 37 79 77 85 100 112 108 104 80 73 69 76 90 74 25 -23 -27 -1 43 52 14 -6 -2 34 47 18 65 115 166 217 168 142
72 47 37 29 17 2 53 72 74 89 100 105 89 98 94 70 98 56 76 76 43 37 4 14 74 79 1 -19 -13 33 50 34 98 102 72 63 108 167
64 28 61 62 84 90 94 99 99 99 118 109 99 100 115 68 110 47 49 89 52 44 20 13 101 96 -1 -18 -7 15 53 66 90 103 74 73 83 116
72 83 101 93 106 111 122 129 140 122 110 117 97 83 103 77 79 66 27 72 95 64 36 -3 37 86 53 58 56 51 40 68 94 122 101 102 101 95
99 117 120 119 116 136 139 143 161 146 133 129 93 76 87 77 69 64 31 54 88 57 47 -5 7 63 69 62 52 81 18 47 103 136 117 110 137 189
141 142 142 132 135 160 172 173 161 145 123 105 88 74 85 84 53 55 42 26 45 47 53 38 9 42 19 3 2 49 55 20 82 117 86 92 133 119
133 146 143 148 165 182 163 146 129 117 81 88 81 73 72 85 55 48 47 52 29 33 50 64 49 40 21 0 11 50 2 86 99 82 3 26 124 116
160 153 161 167 184 178 162 137 125 139 122 107 87 78 68 74 69 54 47 51 40 29 40 49 61 51 51 28 16 41 16 29 109 161 149 96 29 83
157 158 174 160 147 152 148 168 150 129 115 96 87 77 74 67 71 65 54 52 50 37 48 53 64 51 56 45 41 47 34 39 65 118 129 201 111 174
Wind_Speed
52 54 54 55 57 56 54 53 54 55 55 61 61 62 64 64 62 61 60 59 61 63 63 64 64 65 66 70 75 77 78 85 92 95 89 71 80 90
51 53 55 57 57 56 55 53 54 56 57 64 64 64 66 67 64 62 60 60 61 63 63 63 63 63 64 64 67 71 74 77 81 89 81 82 93 76
51 53 56 57 57 55 56 54 55 55 61 62 62 66 68 71 67 65 61 60 60 64 64 63 63 62 62 62 63 65 66 70 73 77 80 72 73 67
50 53 54 56 57 55 55 56 57 57 60 64 63 66 68 72 69 67 65 60 61 64 65 65 63 63 63 61 61 61 61 62 64 66 69 76 85 78
48 52 54 55 56 57 58 59 60 59 60 61 64 66 68 72 70 68 67 65 60 69 64 64 65 63 63 62 60 60 59 59 60 58 63 67 71 78
48 50 54 55 56 58 59 61 63 62 63 63 66 69 71 75 69 72 72 69 64 70 65 64 62 64 64 63 61 60 59 57 56 55 55 58 63 70
46 49 53 56 56 57 59 61 64 66 66 67 69 71 74 78 77 77 74 73 60 68 69 64 66 62 64 62 62 60 58 58 56 55 54 54 55 58
47 47 51 57 57 59 54 59 62 66 68 68 70 74 75 78 78 78 76 76 68 70 72 61 69 63 60 62 63 62 61 58 57 54 53 52 51 50
47 49 49 57 59 62 50 56 59 62 62 65 69 72 72 77 79 77 78 75 62 71 70 63 69 65 57 60 63 61 61 58 56 53 51 50 50 48
43 49 53 57 61 63 58 58 60 62 63 61 62 67 69 73 75 74 75 75 61 64 74 65 69 68 57 58 63 61 60 58 57 55 52 50 49 44
41 47 51 55 61 62 58 59 61 63 63 64 64 67 70 73 75 74 75 74 69 62 76 66 68 71 56 58 62 64 58 59 57 56 53 50 48 46
35 42 52 54 58 60 58 60 62 65 65 66 64 67 69 71 73 69 71 70 72 64 75 69 67 68 60 59 62 64 58 59 56 55 54 51 49 45
40 43 50 52 53 58 58 59 62 64 65 66 66 69 70 71 70 69 66 62 63 60 66 65 62 64 59 65 60 63 59 57 54 54 53 51 49 45
41 44 47 49 49 52 56 59 61 63 64 67 68 71 70 71 68 68 67 62 49 54 60 63 60 62 61 59 61 65 61 53 56 55 54 53 48 46
40 41 42 44 49 46 53 57 60 63 65 68 70 69 67 67 65 65 64 62 55 52 57 63 61 60 55 57 60 62 60 52 60 57 55 53 50 48
37 37 40 42 43 46 49 54 58 62 64 66 66 65 64 66 64 63 63 62 58 58 58 61 61 60 51 55 55 60 59 55 61 58 55 53 51 50
40 40 42 46 48 51 53 55 56 60 64 64 64 65 65 63 64 61 61 61 59 61 60 60 62 57 49 54 56 58 60 59 60 59 56 54 51 52
39 42 44 47 49 51 54 55 57 60 62 62 62 63 64 62 62 60 59 59 61 60 60 59 62 59 55 54 58 60 58 61 60 59 57 56 55 54
39 41 43 46 47 49 52 54 57 58 58 59 59 59 59 59 59 59 59 59 60 59 59 58 60 61 61 62 59 61 59 62 62 60 58 57 56 54
39 41 43 44 46 48 50 53 54 53 53 53 53 55 57 57 56 58 58 59 60 60 60 60 61 63 62 63 64 63 60 64 64 63 59 58 57 49
37 39 41 42 44 47 47 48 49 47 46 50 50 50 53 55 55 56 59 60 60 61 62 64 65 65 61 60 63 63 61 65 63 64 57 60 61 55
36 38 39 41 44 45 45 44 48 47 47 49 49 48 50 53 55 56 58 60 61 61 64 66 67 66 64 63 66 67 66 67 65 61 58 59 61 61
33 37 38 38 40 40 43 45 45 45 45 45 46 47 49 50 53 54 56 58 60 62 66 67 68 66 67 67 68 68 68 68 67 66 62 65 62 62
Wind_Direction
357 359 359 355 346 342 324 329 323 311 310 319 323 328 332 334 329 332 331 327 329 328 325 323 318 313 304 293 285 281 277 273 269 266 263 256 248 251
355 360 358 352 344 339 326 320 319 320 312 317 321 337 337 334 330 333 336 337 333 333 331 328 324 320 315 306 296 289 282 279 274 268 259 257 254 257
355 356 354 352 343 335 333 327 324 318 318 321 331 339 341 337 331 335 333 340 340 341 336 332 330 326 322 317 309 301 293 286 280 276 267 255 250 255
357 356 351 350 347 337 337 332 328 322 329 325 335 336 339 337 333 335 338 339 340 339 342 340 334 331 327 323 320 312 305 298 289 284 277 266 261 256
357 355 350 349 346 341 344 340 334 329 331 332 334 335 337 337 334 335 336 338 342 340 333 338 340 334 332 328 323 322 315 309 300 293 287 277 268 263
352 356 350 348 347 345 346 345 342 342 342 340 339 337 336 335 336 332 330 333 335 338 333 333 332 337 333 332 328 323 323 317 312 303 297 289 277 269
353 353 354 349 348 351 353 352 351 350 349 347 344 341 338 336 334 329 327 326 331 336 332 334 330 331 334 331 329 327 322 324 321 312 303 301 292 281
350 357 358 352 347 344 358 358 357 356 354 352 349 345 342 340 337 333 330 327 324 330 327 328 332 326 331 333 330 329 327 321 322 321 314 303 302 295
347 350 1 353 345 342 1 3 2 359 1 357 351 349 347 344 340 338 334 328 331 330 328 321 328 322 328 331 332 330 328 326 323 320 319 315 306 301
353 348 348 351 348 345 354 358 358 359 357 358 357 354 350 346 345 340 336 333 330 334 336 318 322 317 319 330 333 328 328 325 324 320 320 318 313 307
354 354 355 354 351 352 358 359 358 356 356 355 355 353 350 347 345 343 339 336 331 330 336 323 321 316 312 323 330 329 324 324 322 322 320 320 317 312
1 3 359 358 356 358 360 359 357 354 354 355 356 354 351 348 345 345 342 338 336 328 335 328 322 322 306 315 320 327 322 324 320 319 319 319 317 313
349 356 356 356 358 359 0 359 357 355 355 353 352 351 349 347 346 343 342 341 337 336 335 334 323 320 315 308 314 322 320 323 319 316 315 315 316 317
348 353 355 356 359 1 1 359 358 356 355 353 351 349 348 347 345 340 336 337 343 340 338 334 327 322 319 312 312 316 318 319 321 313 314 312 314 312
350 357 360 0 359 2 1 360 358 356 354 353 351 350 350 349 346 342 335 333 335 339 341 336 328 322 328 323 316 319 316 313 320 315 310 311 307 307
353 357 358 359 359 359 0 360 358 356 355 353 353 351 351 350 347 346 337 330 331 330 337 338 329 323 329 328 327 325 323 315 317 315 311 308 306 306
348 353 355 355 356 356 357 357 358 357 354 353 353 350 348 350 346 346 341 330 326 326 330 336 333 332 333 327 324 325 326 323 320 315 313 308 304 302
349 350 352 354 355 356 355 355 356 356 354 354 354 351 348 350 349 348 344 330 326 328 329 335 335 328 331 328 329 321 323 323 321 319 316 310 304 303
348 351 352 354 355 356 356 356 356 358 358 356 356 355 352 352 352 349 345 337 331 332 330 334 332 326 321 318 324 326 324 321 318 317 316 315 306 304
349 350 352 354 355 355 356 356 356 359 0 360 360 359 353 353 354 350 346 343 338 336 332 332 331 326 321 319 318 319 328 324 318 315 315 315 311 305
350 352 353 354 355 356 357 357 356 1 1 359 0 359 355 352 353 350 345 341 342 339 332 328 327 325 325 326 320 319 326 326 323 320 317 314 310 304
350 351 354 355 355 355 356 358 355 359 359 356 356 358 356 352 350 349 346 341 341 341 334 330 329 329 326 324 320 317 320 325 323 320 322 325 316 302
351 352 355 356 356 357 356 355 356 355 355 353 354 354 352 352 350 349 348 345 343 341 337 333 331 331 328 326 321 318 319 319 319 314 314 318 321 315